FW0153 Weather Reports


Display with metric or nautical units.
time (UTC)temp
F
wind
direction
speed
MPH
gust
MPH
rain 1hr
in
rain 24hr
in
rain mn
in
humidity
%
barometer
mb
20260505140505 77 144 9.0 0.0 0.00 0.00 0.00 80 1009.3
20260505125005 74 177 13.0 0.0 0.00 0.00 0.00 85 1009.3
20260505124505 74 165 9.0 0.0 0.00 0.00 0.00 86 1009.3
20260505124005 74 106 4.0 0.0 0.00 0.00 0.00 86 1009.3
20260505123712 74 144 13.0 0.0 0.00 0.00 0.00 86 1009.3
20260505123211 74 94 9.0 0.0 0.00 0.00 0.00 86 1009.3
20260505122505 74 123 9.0 0.0 0.00 0.00 0.00 86 1009.3
20260505122005 74 117 13.0 0.0 0.00 0.00 0.00 86 1009.3
20260505121505 74 99 13.0 0.0 0.00 0.00 0.00 86 1009.6
20260505121005 74 138 18.0 0.0 0.00 0.00 0.00 86 1009.3
20260505120505 74 96 18.0 0.0 0.00 0.00 0.00 86 1009.3
20260505120213 74 141 9.0 0.0 0.00 0.00 0.00 86 1008.9
20260505115504 74 164 9.0 0.0 0.00 0.00 0.00 86 1008.9
20260505115005 74 113 4.0 0.0 0.00 0.00 0.00 86 1009.3
20260505114505 74 170 9.0 0.0 0.00 0.00 0.00 86 1009.3
20260505114005 74 130 4.0 0.0 0.00 0.00 0.00 86 1009.3
20260505113505 74 166 9.0 0.0 0.00 0.00 0.00 86 1009.3
20260505113005 74 138 13.0 0.0 0.00 0.00 0.00 86 1008.9
20260505112712 74 71 9.0 0.0 0.00 0.00 0.00 86 1008.9
20260505112211 74 55 18.0 0.0 0.00 0.00 0.00 86 1008.9
20260505111505 74 143 4.0 0.0 0.00 0.00 0.00 86 1009.3
20260505111005 74 161 9.0 0.0 0.00 0.00 0.00 86 1009.3
20260505110505 74 182 9.0 0.0 0.00 0.00 0.00 85 1009.6
20260505102005 74 80 9.0 0.0 0.00 0.00 0.00 87 1009.3
20260505101505 74 104 0.0 0.0 0.00 0.00 0.00 87 1009.3
20260505101005 74 123 4.0 0.0 0.00 0.00 0.00 87 1009.3
20260505100505 74 20 9.0 0.0 0.00 0.00 0.00 87 1009.3
20260505100212 74 37 27.0 0.0 0.00 0.00 0.00 87 1009.3
20260505095505 74 171 9.0 0.0 0.00 0.00 0.00 87 1009.3
20260505095005 74 96 9.0 0.0 0.00 0.00 0.00 87 1009.3
20260505094505 74 117 9.0 0.0 0.00 0.00 0.00 87 1009.3
20260505094005 74 80 13.0 0.0 0.00 0.00 0.00 86 1009.3
20260505093505 74 177 13.0 0.0 0.00 0.00 0.00 86 1008.9
20260505093005 74 55 4.0 0.0 0.00 0.00 0.00 86 1008.9
20260505092505 74 84 18.0 0.0 0.00 0.00 0.00 86 1009.3
20260505092005 74 163 9.0 0.0 0.00 0.00 0.00 86 1009.6
20260505091505 74 169 13.0 0.0 0.00 0.00 0.00 86 1009.3
20260505091005 74 149 23.0 0.0 0.00 0.00 0.00 86 1009.3
20260505090505 74 155 9.0 0.0 0.00 0.00 0.00 86 1009.3
20260505090005 74 67 9.0 0.0 0.00 0.00 0.00 86 1009.6
20260505085505 74 158 9.0 0.0 0.00 0.00 0.00 86 1009.3
20260505085005 74 141 13.0 0.0 0.00 0.00 0.00 85 1009.3
20260505084505 74 73 4.0 0.0 0.00 0.00 0.00 85 1009.6
20260505084005 74 154 13.0 0.0 0.00 0.00 0.00 85 1009.6
20260505083505 74 91 13.0 0.0 0.00 0.00 0.00 85 1009.9
20260505083005 74 148 32.0 0.0 0.00 0.00 0.00 85 1009.9
20260505082505 74 109 9.0 0.0 0.00 0.00 0.00 85 1009.9
20260505082004 74 143 4.0 0.0 0.00 0.00 0.00 85 1009.9
20260505081505 74 160 13.0 0.0 0.00 0.00 0.00 85 1009.9
20260505081005 74 113 13.0 0.0 0.00 0.00 0.00 85 1009.9
20260505080505 74 166 9.0 0.0 0.00 0.00 0.00 85 1009.9
20260505080005 74 131 18.0 0.0 0.00 0.00 0.00 85 1010.3
20260505075505 74 165 13.0 0.0 0.00 0.00 0.00 86 1010.6
20260505075005 74 127 0.0 0.0 0.00 0.00 0.00 86 1010.3
20260505074505 74 138 4.0 0.0 0.00 0.00 0.00 86 1010.3
20260505074005 74 108 0.0 0.0 0.00 0.00 0.00 86 1010.3
20260505073505 74 138 4.0 0.0 0.00 0.00 0.00 86 1010.3
20260505073213 74 131 13.0 0.0 0.00 0.00 0.00 86 1010.3
20260505072712 74 100 9.0 0.0 0.00 0.00 0.00 86 1010.3
20260505072005 73 151 18.0 0.0 0.00 0.00 0.00 86 1009.9
20260505071505 73 111 0.0 0.0 0.00 0.00 0.00 86 1010.3
20260505071005 73 139 9.0 0.0 0.00 0.00 0.00 86 1010.3
20260505070505 73 118 9.0 0.0 0.00 0.00 0.00 86 1010.6
20260505070005 73 108 0.0 0.0 0.00 0.00 0.00 86 1010.6
20260505065505 73 106 0.0 0.0 0.00 0.00 0.00 86 1011.0
20260505065005 73 117 9.0 0.0 0.00 0.00 0.00 86 1011.0
20260505064505 73 98 0.0 0.0 0.00 0.00 0.00 86 1011.0
20260505064005 73 119 0.0 0.0 0.00 0.00 0.00 85 1011.3
20260505063505 73 95 0.0 0.0 0.00 0.00 0.00 85 1011.0
20260505063213 73 105 4.0 0.0 0.00 0.00 0.00 85 1011.0
20260505062505 73 87 0.0 0.0 0.00 0.00 0.00 85 1011.0
20260505062005 73 123 4.0 0.0 0.00 0.00 0.00 85 1011.3
20260505061712 73 136 9.0 0.0 0.00 0.00 0.00 85 1011.3
20260505061005 73 108 4.0 0.0 0.00 0.00 0.00 84 1011.3
20260505060712 73 9 13.0 0.0 0.00 0.00 0.00 84 1011.3
20260505060005 73 160 13.0 0.0 0.00 0.00 0.00 84 1011.3
20260505055505 73 123 4.0 0.0 0.00 0.00 0.00 84 1011.6
20260505055213 73 71 13.0 0.0 0.00 0.00 0.00 84 1011.6
20260505054505 73 164 9.0 0.0 0.00 0.00 0.00 84 1011.6
20260505054213 73 80 9.0 0.0 0.00 0.00 0.00 84 1011.6
20260505053505 73 76 13.0 0.0 0.00 0.00 0.00 85 1011.6
20260505053004 73 77 4.0 0.0 0.00 0.00 0.00 85 1011.6
20260505052505 73 73 9.0 0.0 0.00 0.00 0.00 85 1011.6
20260505052005 73 106 0.0 0.0 0.00 0.00 0.00 84 1012.0
20260505051506 73 39 18.0 0.0 0.00 0.00 0.00 84 1012.0
20260505051004 73 112 13.0 0.0 0.00 0.00 0.00 84 1011.6
20260505050505 73 87 0.0 0.0 0.00 0.00 0.00 83 1012.0
20260505041505 74 129 4.0 0.0 0.00 0.00 0.00 81 1012.0
20260505041005 74 43 4.0 0.0 0.00 0.00 0.00 81 1012.0
20260505040505 74 58 13.0 0.0 0.00 0.00 0.00 80 1012.0
20260505040212 74 95 4.0 0.0 0.00 0.00 0.00 80 1012.3
20260505035505 74 160 0.0 0.0 0.00 0.00 0.00 80 1012.0
20260505035004 74 73 4.0 0.0 0.00 0.00 0.00 80 1012.0
20260505034505 74 83 9.0 0.0 0.00 0.00 0.00 79 1012.3
20260505034005 74 80 4.0 0.0 0.00 0.00 0.00 79 1012.3
20260505033505 74 50 9.0 0.0 0.00 0.00 0.00 79 1012.3
20260505033005 74 145 13.0 0.0 0.00 0.00 0.00 78 1012.3
20260505032713 74 80 4.0 0.0 0.00 0.00 0.00 78 1012.3
20260505032005 74 46 4.0 0.0 0.00 0.00 0.00 77 1012.0
20260505031505 74 97 4.0 0.0 0.00 0.00 0.00 77 1012.0
20260505031004 74 66 9.0 0.0 0.00 0.00 0.00 77 1012.0
20260505030505 74 73 13.0 0.0 0.00 0.00 0.00 77 1012.3
20260505030005 74 92 9.0 0.0 0.00 0.00 0.00 77 1012.3
20260505025505 74 34 27.0 0.0 0.00 0.00 0.00 77 1012.0
20260505025212 74 163 13.0 0.0 0.00 0.00 0.00 77 1012.3
20260505024505 74 160 9.0 0.0 0.00 0.00 0.00 77 1012.0
20260505024005 74 111 0.0 0.0 0.00 0.00 0.00 77 1012.0
20260505023505 74 76 4.0 0.0 0.00 0.00 0.00 76 1011.6
20260505023212 74 112 9.0 0.0 0.00 0.00 0.00 76 1012.0
20260505022505 74 90 9.0 0.0 0.00 0.00 0.00 76 1011.6
20260505022005 74 87 4.0 0.0 0.00 0.00 0.00 75 1011.6
20260505021505 74 12 18.0 0.0 0.00 0.00 0.00 75 1011.6
20260505021005 74 125 13.0 0.0 0.00 0.00 0.00 75 1011.3
20260505020505 74 97 0.0 0.0 0.00 0.00 0.00 75 1011.3
20260505020005 74 136 9.0 0.0 0.00 0.00 0.00 74 1011.3
20260505015712 74 71 4.0 0.0 0.00 0.00 0.00 74 1011.3
20260505015005 74 77 4.0 0.0 0.00 0.00 0.00 74 1011.3
20260505014712 75 150 4.0 0.0 0.00 0.00 0.00 73 1011.3
20260505014005 75 80 13.0 0.0 0.00 0.00 0.00 73 1011.3
20260505013505 75 78 0.0 0.0 0.00 0.00 0.00 73 1011.3
20260505013211 75 27 9.0 0.0 0.00 0.00 0.00 73 1011.3
20260505012505 75 19 13.0 0.0 0.00 0.00 0.00 73 1011.0
20260505012005 75 83 4.0 0.0 0.00 0.00 0.00 72 1011.3
20260505011505 75 46 13.0 0.0 0.00 0.00 0.00 72 1011.3
20260505011005 75 102 4.0 0.0 0.00 0.00 0.00 71 1011.6
20260505010505 76 41 13.0 0.0 0.00 0.00 0.00 71 1011.3
20260505010005 76 58 9.0 0.0 0.00 0.00 0.00 71 1011.3
20260505005505 76 59 0.0 0.0 0.00 0.00 0.00 70 1011.3
20260505005213 76 103 18.0 0.0 0.00 0.00 0.00 70 1011.6
20260505004712 77 91 9.0 0.0 0.00 0.00 0.00 70 1011.3
20260505004005 77 52 9.0 0.0 0.00 0.00 0.00 69 1011.3
20260505003712 77 122 4.0 0.0 0.00 0.00 0.00 69 1011.3
20260505003005 77 163 13.0 0.0 0.00 0.00 0.00 68 1011.3
20260505002505 77 92 9.0 0.0 0.00 0.00 0.00 68 1011.3
20260505002213 77 0 0.0 0.0 0.00 0.00 0.00 67 1011.0
20260505001505 77 193 9.0 0.0 0.00 0.00 0.00 67 1011.3
20260505001005 77 132 4.0 0.0 0.00 0.00 0.00 67 1011.3
20260505000505 77 65 13.0 0.0 0.00 0.00 0.00 67 1011.3
20260505000005 77 84 9.0 0.0 0.00 0.00 0.00 66 1011.6
20260504235505 77 117 4.0 0.0 0.00 0.00 0.00 66 1011.6
20260504235005 78 125 4.0 0.0 0.00 0.00 0.00 66 1011.3
20260504234505 78 93 4.0 0.0 0.00 0.00 0.00 66 1011.3
20260504234005 78 118 13.0 0.0 0.00 0.00 0.00 66 1011.6
20260504233505 78 173 4.0 0.0 0.00 0.00 0.00 65 1011.3
20260504233005 78 120 9.0 0.0 0.00 0.00 0.00 65 1011.3
20260504232505 79 116 9.0 0.0 0.00 0.00 0.00 65 1011.3
20260504232005 79 123 4.0 0.0 0.00 0.00 0.00 65 1011.6
20260504231505 79 76 18.0 0.0 0.00 0.00 0.00 64 1011.6
20260504231213 79 323 4.0 0.0 0.00 0.00 0.00 64 1011.3
20260504230505 79 121 9.0 0.0 0.00 0.00 0.00 64 1011.3
20260504230005 79 42 13.0 0.0 0.00 0.00 0.00 64 1011.6
20260504225711 80 86 4.0 0.0 0.00 0.00 0.00 63 1011.6
20260504225005 80 74 13.0 0.0 0.00 0.00 0.00 63 1011.6
20260504224505 80 101 4.0 0.0 0.00 0.00 0.00 62 1011.6
20260504224212 80 152 13.0 0.0 0.00 0.00 0.00 63 1011.6
20260504223505 80 74 13.0 0.0 0.00 0.00 0.00 63 1011.6
20260504223005 80 102 13.0 0.0 0.00 0.00 0.00 62 1011.6
20260504222505 80 71 9.0 0.0 0.00 0.00 0.00 62 1011.6
20260504222005 80 90 9.0 0.0 0.00 0.00 0.00 61 1011.6
20260504221505 80 310 13.0 0.0 0.00 0.00 0.00 62 1011.6
20260504221005 80 120 9.0 0.0 0.00 0.00 0.00 61 1011.6
20260504220504 80 141 27.0 0.0 0.00 0.00 0.00 59 1011.6
20260504220005 81 126 18.0 0.0 0.00 0.00 0.00 58 1011.6
20260504215505 81 150 0.0 0.0 0.00 0.00 0.00 60 1011.6
20260504215212 80 109 4.0 0.0 0.00 0.00 0.00 60 1012.0
20260504214504 80 107 13.0 0.0 0.00 0.00 0.00 60 1011.6
20260504214005 80 104 9.0 0.0 0.00 0.00 0.00 60 1011.6
20260504213505 80 357 4.0 0.0 0.00 0.00 0.00 60 1011.6
20260504213005 81 131 13.0 0.0 0.00 0.00 0.00 60 1011.6
20260504212505 80 116 0.0 0.0 0.00 0.00 0.00 61 1011.6
20260504212005 80 64 23.0 0.0 0.00 0.00 0.00 60 1012.0
20260504211505 80 60 9.0 0.0 0.00 0.00 0.00 61 1012.0
20260504211005 80 47 18.0 0.0 0.00 0.00 0.00 60 1012.3
20260504210505 80 77 32.0 0.0 0.00 0.00 0.00 59 1012.3
20260504210005 80 76 4.0 0.0 0.00 0.00 0.00 60 1012.3
20260504205504 80 63 9.0 0.0 0.00 0.00 0.00 61 1012.3
20260504205214 80 119 9.0 0.0 0.00 0.00 0.00 61 1012.7
20260504204712 80 156 4.0 0.0 0.00 0.00 0.00 61 1012.3
20260504204005 80 98 4.0 0.0 0.00 0.00 0.00 62 1012.7
20260504203505 80 29 13.0 0.0 0.00 0.00 0.00 60 1013.0
20260504203211 80 88 9.0 0.0 0.00 0.00 0.00 61 1012.7
20260504202505 79 81 4.0 0.0 0.00 0.00 0.00 63 1012.7
20260504202211 80 51 4.0 0.0 0.00 0.00 0.00 62 1012.7
20260504201505 80 54 9.0 0.0 0.00 0.00 0.00 62 1013.3
20260504201005 79 119 0.0 0.0 0.00 0.00 0.00 63 1013.3
20260504200505 79 35 0.0 0.0 0.00 0.00 0.00 63 1013.3
20260504200005 79 107 18.0 0.0 0.00 0.00 0.00 63 1013.3
20260504195505 79 23 9.0 0.0 0.00 0.00 0.00 63 1013.3
20260504195005 79 85 9.0 0.0 0.00 0.00 0.00 63 1013.3
20260504194505 80 72 9.0 0.0 0.00 0.00 0.00 63 1013.3
20260504194005 80 163 9.0 0.0 0.00 0.00 0.00 62 1013.3
20260504193504 79 112 9.0 0.0 0.00 0.00 0.00 63 1013.3
20260504193005 78 138 9.0 0.0 0.00 0.00 0.00 64 1013.3
20260504192505 78 94 13.0 0.0 0.00 0.00 0.00 65 1013.3
20260504192005 78 100 4.0 0.0 0.00 0.00 0.00 64 1013.3
20260504191505 78 193 4.0 0.0 0.00 0.00 0.00 64 1013.3
20260504191005 78 108 13.0 0.0 0.00 0.00 0.00 65 1013.3
20260504190505 78 144 4.0 0.0 0.00 0.00 0.00 65 1013.7
20260504190005 79 129 13.0 0.0 0.00 0.00 0.00 64 1013.3
20260504185505 78 118 4.0 0.0 0.00 0.00 0.00 64 1013.3
20260504185005 78 154 9.0 0.0 0.00 0.00 0.00 64 1013.7
20260504184505 78 136 0.0 0.0 0.00 0.00 0.00 64 1013.7
20260504184005 78 75 13.0 0.0 0.00 0.00 0.00 64 1013.7
20260504183505 77 54 13.0 0.0 0.00 0.00 0.00 64 1013.7
20260504183005 77 114 13.0 0.0 0.00 0.00 0.00 65 1013.7
20260504182712 77 52 9.0 0.0 0.00 0.00 0.00 65 1013.7
20260504182005 77 71 18.0 0.0 0.00 0.00 0.00 65 1014.0
20260504181505 77 68 9.0 0.0 0.00 0.00 0.00 65 1014.0
20260504181005 77 43 9.0 0.0 0.00 0.00 0.00 65 1014.0
20260504180711 77 68 9.0 0.0 0.00 0.00 0.00 66 1014.0
20260504180005 77 120 4.0 0.0 0.00 0.00 0.00 66 1014.0
20260504175505 77 98 9.0 0.0 0.00 0.00 0.00 65 1014.0
20260504175005 78 87 13.0 0.0 0.00 0.00 0.00 64 1014.0
20260504174505 77 109 4.0 0.0 0.00 0.00 0.00 64 1014.0
20260504174005 77 126 4.0 0.0 0.00 0.00 0.00 65 1014.0
20260504173505 77 64 0.0 0.0 0.00 0.00 0.00 64 1014.0
20260504173005 78 170 0.0 0.0 0.00 0.00 0.00 64 1014.4
20260504172505 77 42 4.0 0.0 0.00 0.00 0.00 63 1014.4
20260504172212 77 66 4.0 0.0 0.00 0.00 0.00 65 1014.4
20260504171505 77 168 18.0 0.0 0.00 0.00 0.00 65 1014.7
20260504171005 77 94 13.0 0.0 0.00 0.00 0.00 64 1014.7
20260504170505 77 207 13.0 0.0 0.00 0.00 0.00 64 1014.7